Gustavus, AK

1:58 PM AKST on February 19, 2018 (GMT -0900)
Gustavus

Weather History for PAGS - May, 2014

Change the Weather History Date:

Saturday, May 31, 2014

  Actual Average Record
Temperature  
Mean Temperature 50 °F -  
Max Temperature 53 °F 58 °F 75 °F (1964)
Min Temperature 48 °F 41 °F 30 °F (1950)
Degree Days  
Heating Degree Days 14    
Moisture  
Dew Point 41 °F    
Average Humidity 71    
Maximum Humidity 82    
Minimum Humidity 54    
Precipitation  
Precipitation 0.00 in - - ()
Sea Level Pressure  
Sea Level Pressure 30.22 in    
Wind  
Wind Speed 7 mph (South)    
Max Wind Speed 12 mph    
Max Gust Speed 16 mph    
Visibility 10 miles    
Events      
Averages and records for this station are not official NWS values.
T = Trace of Precipitation, MM = Missing Value Source: NWS Daily Summary

Daily Weather History Graph

Daily Weather History Graph

Search for Another Location

Airport or City:

Trip Planner

Search our weather history database for the weather conditions in past years. The results will help you decide how hot, cold, wet, or windy it might be!

Date:

Astronomy

May. 31, 2014 Rise Set
Actual Time 4:07 AM AKDT 9:54 PM AKDT
Civil Twilight 2:58 AM AKDT 11:04 PM AKDT
Nautical Twilight 1:32 AM AKDT 12:28 AM AKDT
Astronomical Twilight Sun does not rise Sun does not rise
Moon 7:14 AM AKDT (5/31) 11:48 PM AKDT (5/31)
Length of Visible Light 20h 05m
Length of Day
17h 47m
Waxing Crescent, 9% of the Moon is Illuminated
May 31
Waxing Crescent
Jun 5
First Quarter
Jun 12
Full
Jun 19
Last Quarter
Jun 27
New

Hourly Weather History & Observations

Time (AKDT) Temp. Dew Point Humidity Pressure Visibility Wind Dir Wind Speed Gust Speed Precip Events Conditions
12:56 AM 51.8 °F 46.4 °F 82% 30.05 in 10.0 mi SSE 4.6 mph - N/A   Overcast
1:36 AM 51.8 °F 46.4 °F 82% 30.05 in 10.0 mi SSE 9.2 mph - N/A   Overcast
1:56 AM 51.8 °F 46.4 °F 82% 30.05 in 10.0 mi SE 6.9 mph - N/A   Overcast
2:16 AM 51.8 °F 46.4 °F 82% 30.05 in 10.0 mi SE 8.1 mph - N/A   Overcast
2:36 AM 51.8 °F 46.4 °F 82% 30.05 in 10.0 mi ESE 9.2 mph - N/A   Overcast
2:56 AM 51.8 °F 46.4 °F 82% 30.05 in 10.0 mi ESE 9.2 mph - N/A   Overcast
3:16 AM 51.8 °F 46.4 °F 82% 30.06 in 10.0 mi ESE 8.1 mph - N/A   Overcast
11:16 AM 51.8 °F 44.6 °F 76% 30.16 in 10.0 mi SW 6.9 mph - N/A   Overcast
4:56 PM 53.6 °F 37.4 °F 54% 30.26 in 10.0 mi SW 10.4 mph 16.1 mph N/A   Mostly Cloudy
5:16 PM 51.8 °F 37.4 °F 58% 30.26 in 10.0 mi SW 6.9 mph - N/A   Mostly Cloudy
5:36 PM 51.8 °F 37.4 °F 58% 30.27 in 10.0 mi SW 6.9 mph - N/A   Overcast
5:56 PM 51.8 °F 39.2 °F 62% 30.27 in 10.0 mi SW 6.9 mph - N/A   Overcast
6:36 PM 51.8 °F 39.2 °F 62% 30.26 in 10.0 mi SSW 11.5 mph 16.1 mph N/A   Mostly Cloudy
6:56 PM 51.8 °F 39.2 °F 62% 30.27 in 10.0 mi SSW 10.4 mph 16.1 mph N/A   Overcast
7:16 PM 51.8 °F 39.2 °F 62% 30.26 in 10.0 mi SSW 11.5 mph - N/A   Mostly Cloudy
7:56 PM 51.8 °F 39.2 °F 62% 30.27 in 10.0 mi SSW 9.2 mph - N/A   Mostly Cloudy
8:16 PM 50.0 °F 39.2 °F 66% 30.27 in 10.0 mi SSW 6.9 mph - N/A   Mostly Cloudy
8:36 PM 50.0 °F 39.2 °F 66% 30.27 in 10.0 mi SSW 8.1 mph - N/A   Overcast
8:56 PM 50.0 °F 39.2 °F 66% 30.28 in 10.0 mi South 4.6 mph - N/A   Overcast
9:16 PM 50.0 °F 39.2 °F 66% 30.28 in 10.0 mi SSW 4.6 mph - N/A   Overcast
9:36 PM 50.0 °F 39.2 °F 66% 30.29 in 10.0 mi SSW 3.5 mph - N/A   Overcast
10:16 PM 48.2 °F 41.0 °F 76% 30.30 in 10.0 mi SSW 5.8 mph - N/A   Overcast
10:36 PM 48.2 °F 41.0 °F 76% 30.30 in 10.0 mi South 5.8 mph - N/A   Overcast
10:56 PM 48.2 °F 41.0 °F 76% 30.30 in 10.0 mi South 4.6 mph - N/A   Overcast
11:16 PM 48.2 °F 41.0 °F 76% 30.30 in 10.0 mi South 5.8 mph - N/A   Overcast
11:36 PM 48.2 °F 41.0 °F 76% 30.30 in 10.0 mi SSW 5.8 mph - N/A   Overcast
11:56 PM 48.2 °F 39.2 °F 71% 30.31 in 10.0 mi South 4.6 mph - N/A   Mostly Cloudy